Location: Kairanga
(40.3500°S, 175.5333°E)
Time: 02:24:51
(UTC+00:00)

Daily predictions for brighter satellites

Satellite Brightness Start Highest point End
(mag) Time Altitude Azimuth Time Altitude Azimuth Time Altitude Azimuth
Timation 2 Rocket 4.5 05:26:47 10° SSW 05:32:50 39° ESE 05:38:34 10° NE
Meteor 2-9 Rocket 4.3 05:27:28 10° N 05:32:50 83° W 05:38:15 10° S
Cosmos 2322 Rocket 3.9 05:32:04 10° WNW 05:36:58 29° WSW 05:41:57 10° S
Okean 3 Rocket 3.7 05:34:27 10° N 05:38:45 56° E 05:43:06 10° SSE
Lacrosse 5 rocket 3.1 05:35:44 10° WSW 05:38:49 30° NW 05:41:56 10° N
SKYMED 2 3.8 05:35:49 10° N 05:40:12 82° WNW 05:44:38 10° SSW
Cosmos 676 Rocket 4.1 05:35:31 10° SSW 05:40:51 60° ESE 05:46:06 10° NNE
Cosmos 2219 Rocket 3.0 05:36:14 10° NW 05:41:45 53° WSW 05:47:22 10° SSE
Cosmos 2333 Rocket 4.1 05:37:48 10° WNW 05:42:33 26° SW 05:47:22 10° S
Cosmos 1300 4.0 05:43:16 10° ENE 05:45:06 15° E 05:46:56 10° SE
Cosmos 1624 Rocket 4.4 05:41:13 10° NNW 05:46:29 67° WSW 05:51:47 10° SSE
SAR-Lupe-1 4.1 05:43:35 10° SSE 05:47:14 62° E 05:50:49 10° N
Cosmos 1954 Rocket 4.1 05:42:03 10° SSW 05:47:26 89° ESE 05:52:42 10° NNE
Cosmos 2123 Rocket 4.4 05:42:17 10° S 05:48:15 40° ESE 05:54:08 10° NE
Meteor 1-23 Rocket 4.3 05:43:09 10° S 05:48:42 57° ESE 05:54:11 10° NNE
Cosmos 1975 2.8 05:46:19 10° N 05:50:05 79° W 05:53:54 10° S
Cosmos 371 Rocket 4.0 05:46:25 10° S 05:50:43 31° ESE 05:54:59 10° NE
ATLAS CENTAUR R/B 1.7 05:48:49 10° N 05:51:41 29° ENE 05:54:05 13° ESE
Cosmos 1484 Rocket 3.0 05:50:07 10° S 05:53:38 61° WSW 05:57:04 10° NNW
Cosmos 2056 Rocket 4.3 05:51:36 10° NW 05:56:44 53° WSW 06:02:00 10° S
CBERS-1 4.0 05:51:42 10° SSE 05:56:53 86° ENE 06:02:00 10° NNW
Cosmos 1943 Rocket 3.0 05:53:46 10° S 05:58:28 27° SE 06:03:07 10° ENE
Cosmos 2278 Rocket 3.0 05:53:54 10° S 05:58:53 30° ESE 06:03:50 10° ENE
Lacrosse 4 Rocket 2.7 05:58:40 10° NNE 06:01:49 21° ENE 06:03:46 15° ESE
ARIANE 6 FM1 Upper Stage 2.9 05:59:14 10° NW 06:03:43 86° WSW 06:08:07 11° SE
Cosmos 1110 Rocket 4.0 06:01:19 10° N 06:06:26 65° ENE 06:11:40 10° SSE
USA 276 2.0 06:04:16 10° WNW 06:06:28 46° SSW 06:07:53 20° SE
Cosmos 1980 4.2 06:01:34 10° N 06:06:46 39° ENE 06:11:43 12° SE
Cosmos 1408 Rocket 3.5 06:03:57 10° N 06:08:24 72° E 06:12:54 10° SSE
COSMOS 2428 2.8 06:05:19 10° NNW 06:11:02 82° WSW 06:16:49 10° SSE
Meteor 2-14 Rocket 4.4 06:05:06 10° S 06:11:20 72° E 06:17:29 10° NNE
Tiangong -1.1 06:08:24 10° W 06:11:32 46° NNW 06:14:40 10° NE
Cosmos 1515 Rocket 3.9 06:08:01 10° SSW 06:12:31 73° W 06:16:57 10° N
Cosmos 1934 Rocket 3.9 06:06:32 10° N 06:12:33 65° E 06:18:37 10° SSE
Cosmos 1470 2.6 06:13:19 10° NNW 06:16:50 75° W 06:20:26 10° S
Meteor 1-21 4.2 06:12:07 10° S 06:17:52 82° E 06:23:37 10° N
SJ 16-02 1.4 06:15:19 10° SSW 06:19:43 84° WNW 06:24:04 10° NNE
COSMOS 2455 3.5 06:14:27 10° N 06:19:52 36° ENE 06:23:29 19° SE
IGS 5A 3.5 06:15:53 10° SSE 06:19:53 54° E 06:23:50 10° N
Cosmos 1605 Rocket 4.4 06:14:05 10° NNE 06:19:59 43° E 06:26:00 10° SSE
Cosmos 1500 Rocket 3.4 06:16:02 10° N 06:20:21 80° E 06:24:44 10° S
CZ-4C R/B 4.0 06:18:56 10° S 06:20:54 12° SSE 06:21:42 11° SSE
Okean 3 4.0 06:19:06 10° SSE 06:22:55 33° ESE 06:26:39 10° NE
Cosmos 2322 4.4 06:19:44 10° NW 06:25:19 54° WSW 06:30:56 10° SSE
CZ-2D R/B 2.8 06:27:26 12° SSE 06:30:34 87° ENE 06:33:54 10° NNW
NOSS 3-3 (C) 3.7 06:24:37 10° SSW 06:30:55 65° SE 06:36:11 10° NE
BREEZE M DEB (TANK) 3.8 06:29:53 10° SSW 06:30:28 12° S 06:30:28 12° S
NOSS 3-2 (C) 4.4 06:23:38 10° NW 06:32:52 74° SW 06:40:33 12° SSE
Cosmos 1302 Rocket 4.3 06:28:06 10° N 06:33:04 44° ENE 06:35:57 23° SE
CZ-2D R/B 4.1 06:33:18 29° E 06:33:18 29° E 06:36:39 10° NNE
Cosmos 1850 Rocket 3.9 06:29:06 10° SSW 06:34:23 68° ESE 06:39:34 10° NNE
ATLAS 5 CENTAUR R/B 4.5 06:30:37 10° WSW 06:34:32 22° WNW 06:37:53 10° NNW
Delta 2 Rocket 4.1 06:32:15 10° NW 06:35:17 31° NNE 06:36:29 24° NE
IRS-P3 4.1 06:31:03 10° SSE 06:36:23 60° ENE 06:41:40 10° N
Cosmos 2237 Rocket 2.2 06:32:02 10° N 06:37:41 68° ENE 06:41:55 18° SSE
SMAP 3.0 06:33:57 10° SSE 06:38:42 79° ENE 06:43:23 10° N
Cosmos 2084 Rocket 3.7 06:37:32 10° NNW 06:41:26 44° ENE 06:42:12 39° E
AQUARIUS 4.2 06:42:00 24° SSE 06:44:30 55° E 06:48:52 10° N
IRAS Rocket 4.2 06:39:28 10° SSE 06:45:12 82° ENE 06:50:52 10° NNW
SL-08 R/B 3.5 06:42:18 10° NE 06:46:53 47° ESE 06:51:35 10° S
OAO 3 Rocket 3.9 06:43:59 10° WNW 06:48:37 45° N 06:50:40 29° NE
YAOGAN 11 3.9 06:47:17 10° NNE 06:51:36 79° ESE 06:55:56 10° S
USA 238 DEB 4.0 06:43:57 10° NNW 06:51:57 67° ENE 06:56:35 26° SE
USA 238 4.0 06:44:03 10° NNW 06:52:04 67° ENE 06:56:40 26° SE
Cosmos 1607 3.9 06:47:15 10° SSW 06:53:44 76° ESE 07:00:06 10° NE
Meteor 2-21 Rocket 4.4 06:50:03 10° S 06:56:22 89° ESE 07:02:35 10° N
ARIANE 5 R/B 3.0 06:51:20 10° S 06:56:30 62° WSW 07:01:33 10° NNW
Cosmos 968 Rocket 3.8 06:52:34 10° SSW 06:57:44 68° WNW 07:02:53 10° N
BREEZE-M DEB (TANK) 4.0 06:56:49 10° W 07:00:08 53° SSW 07:03:22 30° SE
ACS3 Solar Sail 4.2 06:57:52 10° SSW 07:02:07 19° WSW 07:06:17 10° WNW
Landsat 7 3.6 07:10:04 43° SSE 07:11:39 86° ENE 07:16:20 10° NNW
Cosmos 724 4.3 07:10:17 10° SSW 07:16:04 78° WNW 07:21:33 12° NNE
Cosmos 967 Rocket 4.4 07:12:30 10° NNW 07:18:57 82° ENE 07:21:00 47° SE
ATLAS CENTAUR R/B 3.4 07:25:32 10° W 07:27:27 16° SW 07:27:27 16° SW
SL-19 R/B 4.2 07:29:56 53° SSE 07:31:27 88° ENE 07:37:02 10° NNW
Cosmos 1633 Rocket 3.8 07:32:16 10° NNW 07:35:40 49° NW 07:35:40 49° NW
Lacrosse 4 Rocket 2.9 07:35:50 10° WNW 07:39:24 32° WSW 07:39:24 32° WSW
Cosmos 1943 Rocket 3.2 07:37:05 10° SW 07:42:21 43° WNW 07:47:32 10° N
Cosmos 2278 Rocket 3.4 07:37:45 10° SW 07:43:02 40° WNW 07:48:15 10° N
SL-16 R/B 3.1 07:44:00 10° NNW 07:47:25 38° N 07:47:25 38° N
GEOS 3 Rocket 4.2 07:56:16 56° WSW 07:56:16 56° WSW 08:00:38 10° SW
COSMOS 2455 4.0 08:00:08 10° WNW 08:05:43 38° SW 08:06:39 36° SSW
CZ-4C R/B 4.4 08:05:46 10° SSW 08:06:42 14° SSW 08:06:42 14° SSW
Cosmos 2237 Rocket 4.4 08:18:12 10° W 08:22:15 20° SW 08:23:46 18° SSW
Centaur D AC-29 4.3 08:27:39 10° NW 08:29:08 12° NNW 08:29:08 12° NNW
CZ-3 Stage 3 4.3 08:33:52 10° W 08:45:15 28° NW 08:45:24 28° NW
